Stations météo

réclame
Mon MeteoGroup
Moron de la Frontera, Espagne (8397): Température de l'air & dewpoint: 14.09.2020 20:00:00 - 20.09.2020 20:00:00 (CEST)Moron de la Frontera, Espagne (8397): Vitesse du vent: 14.09.2020 20:00:00 - 20.09.2020 20:00:00 (CEST)Moron de la Frontera, Espagne (8397): Direction du vent: 14.09.2020 20:00:00 - 20.09.2020 20:00:00 (CEST)Moron de la Frontera, Espagne (8397): reduced air pressure: 14.09.2020 20:00:00 - 20.09.2020 20:00:00 (CEST)Moron de la Frontera, Espagne (8397): visibility: 14.09.2020 20:00:00 - 20.09.2020 20:00:00 (CEST)
Date & Time tt [°C] td [°C] ff [km/h] ff [knt] dd ppp [hPa] vv [km]
20.09.2020 20:00:00 26,0 9,4 8 4 W 1017,6 20
20.09.2020 19:00:00 - - - - - - -
20.09.2020 18:00:00 - - - - - - -
20.09.2020 17:00:00 27,4 9,7 5 3 NW 1017,8 20
20.09.2020 16:00:00 - - - - - - -
20.09.2020 15:00:00 - - - - - - -
20.09.2020 14:00:00 25,6 11,7 4 2 WNW 1019,7 15
20.09.2020 13:00:00 - - - - - - -
20.09.2020 12:00:00 - - - - - - -
20.09.2020 11:00:00 20,4 13,8 4 2 SSE 1020,2 12
20.09.2020 10:00:00 - - - - - - -
20.09.2020 09:00:00 - - - - - - -
20.09.2020 08:00:00 15,7 11,7 4 2 S 1019,7 15
20.09.2020 07:00:00 - - - - - - -
20.09.2020 06:00:00 - - - - - - -
20.09.2020 05:00:00 16,9 13,0 4 2 SW 1019,1 15
20.09.2020 04:00:00 - - - - - - -
20.09.2020 03:00:00 - - - - - - -
20.09.2020 02:00:00 17,6 13,5 5 3 SW 1020,2 20
20.09.2020 01:00:00 - - - - - - -
20.09.2020 00:00:00 - - - - - - -
19.09.2020 23:00:00 19,0 13,4 8 4 SSW 1020,2 20
19.09.2020 22:00:00 - - - - - - -
19.09.2020 21:00:00 - - - - - - -
19.09.2020 20:00:00 23,7 11,1 5 3 W 1017,9 25
19.09.2020 19:00:00 - - - - - - -
19.09.2020 18:00:00 - - - - - - -
19.09.2020 17:00:00 24,4 14,8 9 5 SW 1017,4 25
19.09.2020 16:00:00 - - - - - - -
19.09.2020 15:00:00 - - - - - - -
19.09.2020 14:00:00 20,9 16,5 0 0 N 1019,3 20
19.09.2020 13:00:00 - - - - - - -
19.09.2020 12:00:00 - - - - - - -
19.09.2020 11:00:00 19,5 16,0 0 0 N 1018,9 15
19.09.2020 10:00:00 - - - - - - -
19.09.2020 09:00:00 - - - - - - -
19.09.2020 08:00:00 19,9 14,7 0 0 N 1017,3 12
19.09.2020 07:00:00 - - - - - - -
19.09.2020 06:00:00 - - - - - - -
19.09.2020 05:00:00 19,0 14,3 11 6 SSW 1016,6 15
19.09.2020 04:00:00 - - - - - - -
19.09.2020 03:00:00 - - - - - - -
19.09.2020 02:00:00 19,8 13,7 11 6 SW 1017,0 15
19.09.2020 01:00:00 - - - - - - -
19.09.2020 00:00:00 - - - - - - -
18.09.2020 23:00:00 21,4 14,6 15 8 SW 1016,7 15
18.09.2020 22:00:00 - - - - - - -
18.09.2020 21:00:00 - - - - - - -
18.09.2020 20:00:00 22,9 13,9 26 14 SW 1014,5 15
18.09.2020 19:00:00 - - - - - - -
18.09.2020 18:00:00 - - - - - - -
18.09.2020 17:00:00 26,8 12,8 34 18 SW 1012,7 20
18.09.2020 16:00:00 - - - - - - -
18.09.2020 15:00:00 - - - - - - -
18.09.2020 14:00:00 27,2 12,0 31 17 SW 1012,4 8
18.09.2020 13:00:00 - - - - - - -
18.09.2020 12:00:00 - - - - - - -
18.09.2020 11:00:00 27,1 14,8 22 12 SSW 1012,0 20
18.09.2020 10:00:00 - - - - - - -
18.09.2020 09:00:00 - - - - - - -
18.09.2020 08:00:00 22,3 13,9 9 5 WSW 1011,6 25
18.09.2020 07:00:00 - - - - - - -
18.09.2020 06:00:00 - - - - - - -
18.09.2020 05:00:00 22,6 13,9 16 9 SW 1011,7 20
18.09.2020 04:00:00 - - - - - - -
18.09.2020 03:00:00 - - - - - - -
18.09.2020 02:00:00 24,6 11,9 24 13 SSW 1012,0 25
18.09.2020 01:00:00 - - - - - - -
18.09.2020 00:00:00 - - - - - - -
17.09.2020 23:00:00 25,0 12,2 21 11 SW 1012,4 25
17.09.2020 22:00:00 - - - - - - -
17.09.2020 21:00:00 - - - - - - -
17.09.2020 20:00:00 26,2 15,6 11 6 W 1011,1 15
17.09.2020 19:00:00 - - - - - - -
17.09.2020 18:00:00 - - - - - - -
17.09.2020 17:00:00 30,7 12,1 22 12 SW 1010,7 15
17.09.2020 16:00:00 - - - - - - -
17.09.2020 15:00:00 - - - - - - -
17.09.2020 14:00:00 28,3 14,9 5 3 SSW 1012,3 15
17.09.2020 13:00:00 - - - - - - -
17.09.2020 12:00:00 - - - - - - -
17.09.2020 11:00:00 25,3 15,9 5 3 W 1013,7 12
17.09.2020 10:00:00 - - - - - - -
17.09.2020 09:00:00 - - - - - - -
17.09.2020 08:00:00 20,8 17,0 8 4 E 1013,0 10
17.09.2020 07:00:00 - - - - - - -
17.09.2020 06:00:00 - - - - - - -
17.09.2020 05:00:00 21,0 17,2 5 3 SE 1013,5 10
17.09.2020 04:00:00 - - - - - - -
17.09.2020 03:00:00 - - - - - - -
17.09.2020 02:00:00 22,6 17,3 5 3 WSW 1015,3 10
17.09.2020 01:00:00 - - - - - - -
17.09.2020 00:00:00 - - - - - - -
16.09.2020 23:00:00 23,7 18,4 4 2 ESE 1015,0 10
16.09.2020 22:00:00 - - - - - - -
16.09.2020 21:00:00 - - - - - - -
16.09.2020 20:00:00 25,1 17,0 13 7 W 1015,2 13
16.09.2020 19:00:00 - - - - - - -
16.09.2020 18:00:00 - - - - - - -
16.09.2020 17:00:00 30,8 14,8 8 4 WSW 1014,0 20
16.09.2020 16:00:00 - - - - - - -
16.09.2020 15:00:00 - - - - - - -
16.09.2020 14:00:00 29,5 16,0 4 2 WNW 1016,4 20
16.09.2020 13:00:00 - - - - - - -
16.09.2020 12:00:00 - - - - - - -
16.09.2020 11:00:00 23,9 14,9 4 2 NNE 1018,4 20
16.09.2020 10:00:00 - - - - - - -
16.09.2020 09:00:00 - - - - - - -
16.09.2020 08:00:00 19,1 12,8 4 2 S 1018,1 15
16.09.2020 07:00:00 - - - - - - -
16.09.2020 06:00:00 - - - - - - -
16.09.2020 05:00:00 20,0 11,7 5 3 S 1019,2 20
16.09.2020 04:00:00 - - - - - - -
16.09.2020 03:00:00 - - - - - - -
16.09.2020 02:00:00 22,6 13,4 4 2 SW 1019,5 20
16.09.2020 01:00:00 - - - - - - -
16.09.2020 00:00:00 - - - - - - -
15.09.2020 23:00:00 25,3 14,7 9 5 SW 1019,5 20
15.09.2020 22:00:00 - - - - - - -
15.09.2020 21:00:00 - - - - - - -
15.09.2020 20:00:00 30,6 14,7 4 2 NW 1017,4 18
15.09.2020 19:00:00 - - - - - - -
15.09.2020 18:00:00 - - - - - - -
15.09.2020 17:00:00 32,0 15,9 5 3 NNW 1017,9 20
15.09.2020 16:00:00 - - - - - - -
15.09.2020 15:00:00 - - - - - - -
15.09.2020 14:00:00 29,2 15,0 9 5 WSW 1020,4 15
15.09.2020 13:00:00 - - - - - - -
15.09.2020 12:00:00 - - - - - - -
15.09.2020 11:00:00 26,1 16,6 8 4 E 1021,7 12
15.09.2020 10:00:00 - - - - - - -
15.09.2020 09:00:00 - - - - - - -
15.09.2020 08:00:00 21,0 14,9 4 2 SE 1020,7 15
15.09.2020 07:00:00 - - - - - - -
15.09.2020 06:00:00 - - - - - - -
15.09.2020 05:00:00 22,6 15,4 4 2 SSE 1020,6 15
15.09.2020 04:00:00 - - - - - - -
15.09.2020 03:00:00 - - - - - - -
15.09.2020 02:00:00 22,4 16,7 0 0 N 1021,6 15
15.09.2020 01:00:00 - - - - - - -
15.09.2020 00:00:00 - - - - - - -
14.09.2020 23:00:00 23,3 18,2 8 4 W 1020,3 15
14.09.2020 22:00:00 - - - - - - -
14.09.2020 21:00:00 - - - - - - -
14.09.2020 20:00:00 26,6 18,2 5 3 W 1018,4 15

tt = Température de l'air
td = dewpoint
ff = Vitesse du vent
dd = Direction du vent
ppp = reduced air pressure
vv = visibility

stations d'obs. à proximité